Simultaneous Nadir Overpasses (SNOs) Predictions

Prediction of SNOs between METOP-B and NPP Satellite Orbit:

Table of predicted SNOs for the next 14.0 days since TLE Epoch: 5/21/2016
Index Date (METOP-B) Time (METOP-B) Lat,Lon (METOP-B) SZA (METOP-B ) Date (NPP) Time (NPP) Lat,Lon (NPP) SZA (NPP ) Distance(km) Time Diff (sec)
1 05/28/2016 09:14:13 73.40, 34.73 51.86 05/28/2016 09:13:05 73.40, 32.44 51.98 72.53 68
2 05/28/2016 10:04:57 -73.29,-158.19 128.25 05/28/2016 10:03:47 -73.31,-160.04 128.13 59.24 70
3 05/28/2016 10:55:41 73.07, 8.68 51.55 05/28/2016 10:54:29 73.10, 7.73 51.64 30.94 72
4 05/28/2016 11:46:24 -73.02, 175.88 128.50 05/28/2016 11:45:11 -73.02, 175.23 128.47 21.05 73
5 05/28/2016 12:37:07 72.85, -17.14 51.34 05/28/2016 12:35:54 72.86, -17.12 51.36 0.82 73
6 05/28/2016 13:27:49 -72.85, 150.18 128.67 05/28/2016 13:26:38 -72.87, 150.17 128.64 2.41 71
7 05/28/2016 14:18:29 72.83, -42.52 51.31 05/28/2016 14:17:24 72.86, -42.51 51.36 3.41 65
8 05/28/2016 15:09:11 -72.83, 124.80 128.70 05/28/2016 15:08:07 -72.82, 124.89 128.70 3.07 64
9 05/28/2016 15:59:50 72.86, -67.79 51.33 05/28/2016 15:58:54 72.87, -67.89 51.35 3.25 56
10 05/28/2016 16:50:32 -72.86, 99.52 128.68 05/28/2016 16:49:37 -72.83, 99.51 128.70 3.34 55
11 05/28/2016 17:41:12 72.84, -93.18 51.30 05/28/2016 17:40:23 72.82, -93.17 51.29 2.31 49
12 05/28/2016 18:31:54 -72.84, 74.14 128.71 05/28/2016 18:31:07 -72.84, 74.12 128.71 0.89 47
13 05/28/2016 19:22:34 72.82,-118.56 51.27 05/28/2016 19:21:53 72.83,-118.56 51.29 0.49 41
14 05/28/2016 20:13:16 -72.82, 48.76 128.74 05/28/2016 20:12:37 -72.84, 48.73 128.71 2.42 39
15 05/28/2016 21:03:56 72.80,-143.94 51.24 05/28/2016 21:03:23 72.83,-143.94 51.28 3.29 33
16 05/28/2016 21:54:38 -72.80, 23.38 128.77 05/28/2016 21:54:06 -72.80, 23.46 128.77 2.53 32
17 05/28/2016 22:45:18 72.78,-169.32 51.22 05/28/2016 22:44:52 72.79,-169.22 51.22 3.23 26
18 05/28/2016 23:36:00 -72.78, -2.00 128.80 05/28/2016 23:35:36 -72.80, -1.93 128.78 3.20 24
19 05/29/2016 00:26:39 72.81, 165.41 51.23 05/29/2016 00:26:22 72.79, 165.39 51.22 2.44 17
20 05/29/2016 01:17:21 -72.81, -27.28 128.78 05/29/2016 01:17:06 -72.81, -27.32 128.78 1.44 15
21 05/29/2016 02:08:01 72.80, 140.02 51.20 05/29/2016 02:07:52 72.80, 140.01 51.21 0.70 9
22 05/29/2016 02:58:43 -72.79, -52.66 128.81 05/29/2016 02:58:36 -72.81, -52.70 128.79 2.58 7
23 05/29/2016 03:49:23 72.78, 114.64 51.18 05/29/2016 03:49:22 72.80, 114.62 51.21 3.27 1
24 05/29/2016 04:40:05 -72.77, -78.04 128.84 05/29/2016 04:40:05 -72.77, -77.98 128.85 2.00 0
25 05/29/2016 05:30:45 72.76, 89.26 51.15 05/29/2016 05:30:51 72.76, 89.34 51.15 2.63 6
26 05/29/2016 06:21:27 -72.75,-103.42 128.87 05/29/2016 06:21:35 -72.77,-103.37 128.85 2.72 8
27 05/29/2016 07:12:06 72.79, 63.99 51.16 05/29/2016 07:12:21 72.76, 63.96 51.14 2.70 15
28 05/29/2016 08:02:48 -72.78,-128.69 128.85 05/29/2016 08:03:05 -72.78,-128.75 128.86 2.03 17
29 05/29/2016 08:53:28 72.77, 38.61 51.14 05/29/2016 08:53:51 72.77, 38.57 51.14 1.21 23
30 05/29/2016 09:44:10 -72.76,-154.08 128.88 05/29/2016 09:44:35 -72.78,-154.14 128.86 2.87 25
31 05/29/2016 10:34:50 72.75, 13.22 51.11 05/29/2016 10:35:20 72.72, 13.29 51.08 3.33 30
32 05/29/2016 11:25:32 -72.74,-179.46 128.90 05/29/2016 11:26:04 -72.74,-179.42 128.92 1.51 32
33 05/29/2016 12:16:12 72.73, -12.16 51.08 05/29/2016 12:16:50 72.73, -12.10 51.07 2.02 38
34 05/29/2016 13:06:54 -72.72, 155.16 128.93 05/29/2016 13:07:34 -72.74, 155.20 128.92 2.28 40
35 05/29/2016 13:57:33 72.76, -37.43 51.10 05/29/2016 13:58:20 72.73, -37.48 51.07 3.05 47
36 05/29/2016 14:48:15 -72.75, 129.89 128.92 05/29/2016 14:49:04 -72.75, 129.81 128.93 2.63 49
37 05/29/2016 15:38:55 72.74, -62.81 51.07 05/29/2016 15:39:50 72.74, -62.87 51.06 1.79 55
38 05/29/2016 16:29:37 -72.73, 104.51 128.94 05/29/2016 16:30:34 -72.75, 104.43 128.93 3.26 57
39 05/29/2016 17:20:17 72.72, -88.19 51.04 05/29/2016 17:21:19 72.69, -88.15 51.00 3.03 62
40 05/29/2016 18:10:59 -72.71, 79.13 128.97 05/29/2016 18:12:03 -72.71, 79.15 128.99 1.13 64
41 05/29/2016 19:01:39 72.70,-113.57 51.01 05/29/2016 19:02:49 72.70,-113.53 51.00 1.39 70
42 05/29/2016 19:52:21
